Estación de Las Puertas

Ultimos registro cada 15 minutos 64
Estación Fecha / Hora Temperatura Humedad Lluvia Velocidad Dirección Radiación Presion
64 Las Puertas 05-05-2026 15:45 22,4 50 0 0,9 301 265 1011,9
63 Las Puertas 05-05-2026 15:30 22,3 50 0 1,3 335 230 1011,8
62 Las Puertas 05-05-2026 15:15 23 48 0 1,8 317 325 1011,7
61 Las Puertas 05-05-2026 15:00 23 47 0 1,8 9 306 1011,6
60 Las Puertas 05-05-2026 14:45 23,1 46 0 1,8 333 330 1011,4
59 Las Puertas 05-05-2026 14:30 23,3 46 0 1,8 3 390 1011,4
58 Las Puertas 05-05-2026 14:15 23,5 45 0 2,2 282 431 1011,3
57 Las Puertas 05-05-2026 14:00 24,3 42 0 1,8 1 445 1011,3
56 Las Puertas 05-05-2026 13:45 25,6 37 0 2,7 308 461 1011,4
55 Las Puertas 05-05-2026 13:30 26,3 34 0 1,8 259 473 1011,3
54 Las Puertas 05-05-2026 13:15 26,4 34 0 0 211 480 1011,2
53 Las Puertas 05-05-2026 13:00 26 34 0 1,3 248 504 1011,4
52 Las Puertas 05-05-2026 12:45 25,2 34 0 0 263 439 1011,6
51 Las Puertas 05-05-2026 12:30 25,1 34 0 0,4 220 599 1011,8
50 Las Puertas 05-05-2026 12:15 24,8 35 0 0,4 206 483 1012
49 Las Puertas 05-05-2026 12:00 24,2 35 0 1,3 339 323 1012,1
48 Las Puertas 05-05-2026 11:45 23,8 34 0 0 303 413 1012,4
47 Las Puertas 05-05-2026 11:30 22,9 36 0 0,9 203 285 1012,4
46 Las Puertas 05-05-2026 11:15 22,2 38 0 0 197 204 1012,5
45 Las Puertas 05-05-2026 11:00 21,5 39 0 0,4 176 473 1012,6
44 Las Puertas 05-05-2026 10:45 20,6 41 0 0 263 415 1012,7
43 Las Puertas 05-05-2026 10:30 19,8 43 0 0 242 401 1012,7
42 Las Puertas 05-05-2026 10:15 18,6 45 0 0 226 336 1012,8
41 Las Puertas 05-05-2026 10:00 17,8 46 0 0 198 320 1013
40 Las Puertas 05-05-2026 09:45 16,6 48 0 0 10 299 1013,2
39 Las Puertas 05-05-2026 09:30 15,3 50 0 0 85 267 1013,6
38 Las Puertas 05-05-2026 09:15 13,9 51 0 0 85 179 1013,8
37 Las Puertas 05-05-2026 09:00 12,3 55 0 0 85 199 1014,1
36 Las Puertas 05-05-2026 08:45 11,2 58 0 0 85 125 1014,1
35 Las Puertas 05-05-2026 08:30 11 56 0 0 85 40 1014,1
34 Las Puertas 05-05-2026 08:15 10,8 56 0 0 87 44 1014,2
33 Las Puertas 05-05-2026 08:00 10,3 57 0 0 99 33 1014,1
32 Las Puertas 05-05-2026 07:45 9,9 58 0 0,9 107 18 1014,1
31 Las Puertas 05-05-2026 07:30 10,2 58 0 0 138 5 1014
30 Las Puertas 05-05-2026 07:15 10,8 56 0 0 135 0 1014
29 Las Puertas 05-05-2026 07:00 10,9 55 0 1,3 96 0 1013,9
28 Las Puertas 05-05-2026 06:45 10,6 56 0 0 132 0 1013,8
27 Las Puertas 05-05-2026 06:30 9,8 59 0 0 28 0 1013,9
26 Las Puertas 05-05-2026 06:15 9,7 58 0 0 107 0 1013,6
25 Las Puertas 05-05-2026 06:00 9,4 61 0 0,4 105 0 1013,7
24 Las Puertas 05-05-2026 05:45 8,8 62 0 0 26 0 1013,7
23 Las Puertas 05-05-2026 05:30 9,3 61 0 0 134 0 1013,5
22 Las Puertas 05-05-2026 05:15 9,7 61 0 0 134 0 1013,5
21 Las Puertas 05-05-2026 05:00 8,8 62 0 0,4 93 0 1013,3
20 Las Puertas 05-05-2026 04:45 7,8 66 0 0 107 0 1013,1
19 Las Puertas 05-05-2026 04:30 7,8 67 0 0 75 0 1013
18 Las Puertas 05-05-2026 04:15 7,8 66 0 0 75 0 1012,9
17 Las Puertas 05-05-2026 04:00 8,2 63 0 0 75 0 1012,9
16 Las Puertas 05-05-2026 03:45 8,4 64 0 0 75 0 1012,6
15 Las Puertas 05-05-2026 03:30 8,7 62 0 0 75 0 1012,7
14 Las Puertas 05-05-2026 03:15 9,2 59 0 0 75 0 1012,6
13 Las Puertas 05-05-2026 03:00 9,8 59 0 0 75 0 1012,9
12 Las Puertas 05-05-2026 02:45 10,3 58 0 0 75 0 1013
11 Las Puertas 05-05-2026 02:30 10,9 56 0 0 75 0 1013,2
10 Las Puertas 05-05-2026 02:15 11,3 56 0 0 75 0 1013,6
9 Las Puertas 05-05-2026 02:00 11,4 55 0 0 75 0 1013,6
8 Las Puertas 05-05-2026 01:45 12,2 55 0 0 123 0 1013,8
7 Las Puertas 05-05-2026 01:30 12,3 55 0 0,4 102 0 1013,7
6 Las Puertas 05-05-2026 01:15 12,1 55 0 0 68 0 1014,1
5 Las Puertas 05-05-2026 01:00 12,2 54 0 0,4 95 0 1014,1
4 Las Puertas 05-05-2026 00:45 11,9 55 0 0 78 0 1014,2
3 Las Puertas 05-05-2026 00:30 12,4 53 0 1,3 86 0 1014,4
2 Las Puertas 05-05-2026 00:15 12,7 53 0 0 101 0 1014,5
1 Las Puertas 05-05-2026 00:00 12,9 54 0 0,4 81 0 1014,6